Simultaneous Nadir Overpasses (SNOs) Predictions

Prediction of SNOs between GOES-16 and NOAA-19 Satellite Orbit:

Table of predicted SNOs for the next 14.0 days since TLE Epoch: 3/21/2020
Index Date Time (GOES-16) GOES-16 Lat,Lon NOAA-19 Lat,Lon Distance(km) Time Diff (sec)
1 03/22/2020 22:52:42 -0.01, -75.15 -0.74, -78.25 353.88 80
2 03/23/2020 22:41:02 -0.01, -75.14 -0.10, -75.39 28.99 80
3 03/24/2020 22:32:02 -0.01, -75.14 0.60, -72.55 296.35 80
4 03/27/2020 10:50:24 0.01, -75.15 0.58, -77.52 270.46 80
5 03/28/2020 10:41:25 0.00, -75.15 -0.11, -74.67 54.82 80
6 03/29/2020 10:29:45 0.00, -75.15 -0.80, -71.83 380.13 80
7 03/31/2020 22:48:07 0.01, -75.14 -0.35, -76.80 189.09 80
8 04/01/2020 22:39:07 0.01, -75.14 0.29, -73.95 136.56 80
9 04/02/2020 22:27:26 0.01, -75.14 0.93, -71.09 462.33 80




NCC Satellite Simultaneous Nadir Overpasses (SNOs) Prediction Service
